Weather History for Jaipur, India

Change the Weather History Date:

Monday, February 4, 2013

  Actual Average Record
Temperature  
Mean Temperature 70 °F -  
Max Temperature 79 °F - - ()
Min Temperature 60 °F - - ()
Cooling Degree Days 4    
Growing Degree Days 20 (Base 50)    
Moisture  
Dew Point 51 °F    
Average Humidity 53    
Maximum Humidity 68    
Minimum Humidity 25    
Precipitation  
Precipitation 0.04 in - - ()
Sea Level Pressure  
Sea Level Pressure 29.92 in    
Wind  
Wind Speed 9 mph ()    
Max Wind Speed 13 mph    
Max Gust Speed -    
Visibility 1.3 miles    
Events      
T = Trace of Precipitation, MM = Missing Value Source: Averaged Metar Reports

Daily Weather History Graph

Daily Weather History Graph

Search for Another Location

Airport:

Trip Planner

Search our weather history database for the weather conditions in past years. The results will help you decide how hot, cold, wet, or windy it might be!

Date:

Astronomy

Feb. 04, 2013 Rise Set
Actual Time 7:10 AM IST 6:11 PM IST
Civil Twilight 6:46 AM IST 6:35 PM IST
Nautical Twilight 6:18 AM IST 7:02 PM IST
Astronomical Twilight 5:51 AM IST 7:30 PM IST
Moon 1:10 AM IST (2/4) 12:18 PM IST (2/4)
Length of Visible Light 11h 48m
Length of Day
11h 00m
Last Quarter, 42% of the Moon is Illuminated
Feb 4
Last Quarter
Feb 10
New
Feb 18
First Quarter
Feb 26
Full
Mar 5
Last Quarter

Hourly Weather History & Observations

Time (IST) Temp. Dew Point Humidity Pressure Visibility Wind Dir Wind Speed Gust Speed Precip Events Conditions
12:00 AM 64.4 °F 51.8 °F 64% 29.98 in 0.9 mi ENE 10.4 mph - N/A   Smoke
1:00 AM 64.4 °F 50.0 °F 59% 29.95 in 0.9 mi East 11.5 mph - N/A   Smoke
2:00 AM 62.6 °F 50.0 °F 63% 29.95 in 0.9 mi East 10.4 mph - N/A   Smoke
2:30 AM 63 °F 52 °F 58% 29.91 in 1 mi East 4.6 mph - -   Smoke
4:00 AM 62.6 °F 48.2 °F 59% 29.89 in 0.9 mi East 10.4 mph - N/A   Smoke
5:00 AM 62.6 °F 48.2 °F 59% 29.89 in 0.9 mi East 10.4 mph - N/A   Smoke
5:30 AM 63 °F 51 °F 55% 29.87 in 1 mi East 6.9 mph - -   Smoke
6:00 AM 62.6 °F 50.0 °F 63% 29.89 in 0.9 mi East 8.1 mph - N/A   Smoke
7:00 AM 60.8 °F 50.0 °F 68% 29.92 in 0.9 mi East 9.2 mph - N/A   Smoke
8:00 AM 60.8 °F 48.2 °F 63% 29.95 in 0.9 mi East 9.2 mph - N/A   Smoke
8:30 AM 62 °F 49 °F 53% 29.92 in 1 mi East 9.2 mph - -   Smoke
9:00 AM 64.4 °F 48.2 °F 56% 29.95 in 0.9 mi East 9.2 mph - N/A   Smoke
10:00 AM 68.0 °F 48.2 °F 49% 29.98 in 1.6 mi ESE 10.4 mph - N/A   Haze
11:00 AM 69.8 °F 48.2 °F 46% 29.98 in 1.6 mi SE 10.4 mph - N/A   Haze
11:30 AM 74 °F 46 °F 25% 29.91 in 1 mi SE 11.5 mph - -   Haze
12:00 PM 73.4 °F 48.2 °F 41% 29.95 in 1.9 mi SSE 11.5 mph - N/A   Haze
1:00 PM 75.2 °F 50.0 °F 41% 29.92 in 1.9 mi SSE 10.4 mph - N/A   Haze
2:00 PM 77.0 °F 51.8 °F 41% 29.89 in 1.9 mi SSE 5.8 mph - N/A   Haze
2:30 PM 78 °F 51 °F 28% 29.83 in 1 mi SW 6.9 mph - -   Haze
2:30 PM 77.0 °F 51.8 °F 41% 29.89 in 1.9 mi SW 8.1 mph - N/A   Haze
5:00 PM 75.2 °F 55.4 °F 50% 29.89 in 1.9 mi East 10.4 mph - N/A   Haze
5:30 PM 74 °F 54 °F 40% 29.84 in 1 mi East 9.2 mph - -   Haze
5:30 PM 73.4 °F 55.4 °F 53% 29.89 in 1.9 mi East 9.2 mph - N/A   Haze
6:00 PM 73.4 °F 53.6 °F 50% 29.89 in 1.9 mi East 6.9 mph - N/A   Haze
7:00 PM 71.6 °F 51.8 °F 50% 29.89 in 1.2 mi East 11.5 mph - N/A   Smoke
8:00 PM 69.8 °F 53.6 °F 56% 29.92 in 1.2 mi East 11.5 mph - N/A   Smoke
8:30 PM 67 °F 54 °F 55% 29.91 in 1 mi East 11.5 mph - -   Smoke
9:00 PM 68.0 °F 53.6 °F 60% 29.95 in 1.2 mi East 12.7 mph - N/A   Smoke
10:00 PM 66.2 °F 53.6 °F 64% 29.95 in 1.2 mi East 11.5 mph - N/A   Smoke
11:00 PM 64.4 °F 53.6 °F 68% 29.92 in 1.2 mi ENE 6.9 mph - N/A   Haze